Hourly Data Report for October 10, 2013

All times are specified in Local Standard Time (LST). Add 1 hour to adjust for Daylight Saving Time where and when it is observed.

IQALUIT CLIMATE
NUNAVUT

63°44'50.000" N
68°32'40.000" W
33.50 m
2402592
71321
XFB

Download Data

Hourly Data (October 2013)
Hourly Data Report for October 10, 2013
Temp Definition
°C
Dew Point Temp Definition
°C
Rel Hum Definition
%
Wind Dir Definition
10's deg

Wind Spd Definition
km/h
Visibility Definition
km
Stn Press Definition
kPa
Hmdx Definition


Wind Chill Definition


Weather Definition


TIME
00:00 -0.8 -2.4 89 34 15   100.44   -5 LegendNANA
01:00 -0.4 -1.5 92 31 15   100.53   -5 LegendNANA
02:00 -2.7 -3.7 93 33 32   100.64   -10 LegendNANA
03:00 -3.9 -5.3 90 33 32   100.74   -12 LegendNANA
04:00 -4.7 -6.2 89 32 28   100.86   -12 LegendNANA
05:00 -4.9 -6.1 91 33 39   100.97   -14 LegendNANA
06:00 -6.0 -7.5 89 33 30   101.07   -14 LegendNANA
07:00 -6.7 -8.5 87 33 26   101.19   -15 LegendNANA
08:00 -6.8 -8.8 86 34 22   101.32   -14 LegendNANA
09:00 -6.4 -8.7 84 34 28   101.37   -15 LegendNANA
10:00 -6.0 -8.3 84 32 19   101.47   -13 LegendNANA
11:00 -5.8 -8.2 83 33 20   101.54   -13 LegendNANA
12:00 -4.9 -7.2 84 33 20   101.57   -11 LegendNANA
13:00 -5.0 -7.0 86 33 26   101.66   -12 LegendNANA
14:00 -5.7 -7.4 88 33 28   101.71   -14 LegendNANA
15:00 -5.3 -7.3 86 32 20   101.75   -12 LegendNANA
16:00 -4.9 -7.3 83 33 26   101.82   -12 LegendNANA
17:00 -4.9 -7.2 84 34 19   101.88   -11 LegendNANA
18:00 -4.9 -7.4 83 34 13   101.92   -10 LegendNANA
19:00 -4.7 -6.9 85 33 11   101.95   -9 LegendNANA
20:00 -4.1 -6.2 85 33 13   101.98   -9 LegendNANA
21:00 -4.2 -6.8 82 34 17   102.01   -10 LegendNANA
22:00 -4.5 -7.0 83 33 15   102.05   -10 LegendNANA
23:00 -4.9 -7.6 81 33 22   102.08   -12 LegendNANA

Notes on Data Quality.

Legend

  • E = Estimated
  • M = Missing
  • NA = Not Available
  • ‡ = Partner data that is not subject to review by the National Climate Archives
Date modified: